This is the latest recevied weather packets stored in our database for station/object OE2WAO-15. If no packets are shown the sender has not sent any weather packets the latest 10 day(s).
| Time | Temp. | Humidity | Pressure | Rain* | Wind** | Luminosity | Snow |
|---|---|---|---|---|---|---|---|
| 1787837377 | 28.89° C | 99% | 1015.5 hPa | - | - | - | - |
| 1787836769 | 28.89° C | 99% | 1015.5 hPa | - | - | - | - |
| 1787836162 | 29.44° C | 99% | 1015.5 hPa | - | - | - | - |
| 1787835554 | 28.89° C | 99% | 1015.6 hPa | - | - | - | - |
| 1787834946 | 28.89° C | 99% | 1015.7 hPa | - | - | - | - |
| 1787834339 | 28.89° C | 99% | 1015.7 hPa | - | - | - | - |
| 1787833731 | 28.33° C | 99% | 1015.8 hPa | - | - | - | - |
| 1787833123 | 28.33° C | 99% | 1015.9 hPa | - | - | - | - |
| 1787832515 | 27.78° C | 99% | 1016 hPa | - | - | - | - |
| 1787831908 | 27.78° C | 99% | 1016.2 hPa | - | - | - | - |
| 1787831300 | 27.22° C | 99% | 1016.2 hPa | - | - | - | - |
| 1787830690 | 27.22° C | 99% | 1016.4 hPa | - | - | - | - |
| 1787830083 | 27.22° C | 99% | 1016.4 hPa | - | - | - | - |
| 1787829475 | 26.67° C | 99% | 1016.4 hPa | - | - | - | - |
| 1787828868 | 26.11° C | 99% | 1016.3 hPa | - | - | - | - |
| 1787828260 | 25.56° C | 99% | 1016.4 hPa | - | - | - | - |
| 1787827652 | 25.56° C | 99% | 1016.5 hPa | - | - | - | - |
| 1787827045 | 25° C | 99% | 1016.4 hPa | - | - | - | - |
| 1787826437 | 24.44° C | 99% | 1016.6 hPa | - | - | - | - |
| 1787825829 | 24.44° C | 99% | 1016.7 hPa | - | - | - | - |
| 1787825222 | 23.89° C | 99% | 1016.7 hPa | - | - | - | - |
* Rain since midnight (hover to see other rain measurements)
** Current wind speed in m/s (hover to see current wind gust speed)